Middletown, OH

3:09 PM EDT on July 22, 2017 (GMT -0400)
Hook Field Municipal

Weather History for KMWO - December, 2012

Change the Weather History Date:

Sunday, December 9, 2012

  Actual Average (KFFO) Record (KFFO)
Temperature  
Mean Temperature 52 °F -  
Max Temperature 59 °F 41 °F 59 °F (2012)
Min Temperature 45 °F 27 °F 10 °F (2000)
Degree Days  
Heating Degree Days 13    
Growing Degree Days 2 (Base 50)    
Moisture  
Dew Point 50 °F    
Average Humidity 98    
Maximum Humidity 100    
Minimum Humidity 95    
Precipitation  
Precipitation 0.00 in - - ()
Sea Level Pressure  
Sea Level Pressure 29.91 in    
Wind  
Wind Speed 7 mph (ESE)    
Max Wind Speed 12 mph    
Max Gust Speed -    
Visibility 9 miles    
Events Rain    
Averages and records for this station are not official NWS values.
T = Trace of Precipitation, MM = Missing Value Source: NWS Daily Summary

Daily Weather History Graph

Daily Weather History Graph

Search for Another Location

Airport or City:

Trip Planner

Search our weather history database for the weather conditions in past years. The results will help you decide how hot, cold, wet, or windy it might be!

Date:

Astronomy

Dec. 09, 2012 Rise Set
Actual Time 7:46 AM EST 5:13 PM EST
Civil Twilight 7:16 AM EST 5:43 PM EST
Nautical Twilight 6:42 AM EST 6:17 PM EST
Astronomical Twilight 6:10 AM EST 6:50 PM EST
Moon 3:19 AM EST (12/9) 2:19 PM EST (12/9)
Length of Visible Light 10h 27m
Length of Day
9h 26m
Waning Crescent, 19% of the Moon is Illuminated
Dec 9
Waning Crescent
Dec 13
New
Dec 20
First Quarter
Dec 28
Full
Jan 4
Last Quarter

Hourly Weather History & Observations

Time (EST) Temp. Windchill Dew Point Humidity Pressure Visibility Wind Dir Wind Speed Gust Speed Precip Events Conditions
12:15 AM 47.7 °F - 46.6 °F 96% 30.06 in 10.0 mi East 9.2 mph - N/A   Overcast
12:35 AM 47.7 °F - 46.4 °F 95% 30.06 in 10.0 mi ENE 11.5 mph - N/A   Overcast
12:55 AM 47.7 °F - 46.6 °F 96% 30.05 in 10.0 mi ENE 11.5 mph - N/A   Overcast
1:15 AM 47.7 °F - 46.4 °F 95% 30.06 in 10.0 mi ENE 10.4 mph - N/A   Overcast
1:35 AM 45.5 °F 40.8 °F 44.2 °F 95% 30.06 in 10.0 mi ENE 9.2 mph - N/A   Overcast
1:55 AM 45.1 °F 40.8 °F 44.1 °F 96% 30.05 in 10.0 mi ENE 8.1 mph - N/A   Overcast
2:15 AM 45.1 °F 40.8 °F 44.1 °F 96% 30.06 in 10.0 mi ENE 8.1 mph - N/A   Overcast
2:35 AM 45.1 °F 40.8 °F 44.2 °F 97% 30.07 in 10.0 mi ENE 8.1 mph - N/A   Overcast
2:55 AM 45.1 °F 40.8 °F 44.2 °F 97% 30.06 in 10.0 mi NE 8.1 mph - N/A   Overcast
3:15 AM 45.1 °F 40.8 °F 44.2 °F 97% 30.06 in 10.0 mi NE 8.1 mph - N/A   Overcast
3:35 AM 45.1 °F 41.4 °F 44.6 °F 98% 30.06 in 10.0 mi NE 6.9 mph - N/A   Overcast
3:55 AM 45.1 °F 41.4 °F 44.6 °F 98% 30.06 in 10.0 mi NE 6.9 mph - N/A   Overcast
4:15 AM 45.1 °F 40.8 °F 44.6 °F 98% 30.05 in 10.0 mi ENE 8.1 mph - N/A   Overcast
4:35 AM 45.1 °F 41.4 °F 44.2 °F 97% 30.05 in 10.0 mi ENE 6.9 mph - N/A   Overcast
4:55 AM 45.1 °F 40.8 °F 44.2 °F 97% 30.05 in 10.0 mi ENE 8.1 mph - N/A   Overcast
5:15 AM 45.1 °F 40.8 °F 44.2 °F 97% 30.05 in 10.0 mi ENE 8.1 mph - N/A   Overcast
5:35 AM 45.1 °F 40.8 °F 44.2 °F 97% 30.05 in 10.0 mi ENE 8.1 mph - N/A   Overcast
5:55 AM 45.1 °F 39.9 °F 44.2 °F 97% 30.04 in 10.0 mi ENE 10.4 mph - N/A   Overcast
6:15 AM 45.1 °F 40.8 °F 44.2 °F 97% 30.03 in 10.0 mi ENE 8.1 mph - N/A   Overcast
6:35 AM 45.1 °F 40.3 °F 44.1 °F 96% 30.03 in 10.0 mi East 9.2 mph - N/A   Overcast
6:55 AM 45.1 °F 40.3 °F 43.9 °F 95% 30.03 in 10.0 mi East 9.2 mph - N/A   Overcast
7:15 AM 45.1 °F 41.4 °F 43.9 °F 95% 30.03 in 10.0 mi East 6.9 mph - N/A   Overcast
7:35 AM 45.1 °F 41.4 °F 43.9 °F 95% 30.02 in 10.0 mi East 6.9 mph - N/A   Overcast
7:55 AM 45.1 °F 42.0 °F 43.9 °F 95% 30.02 in 10.0 mi East 5.8 mph - N/A   Overcast
8:15 AM 45.1 °F 40.3 °F 43.9 °F 95% 30.01 in 10.0 mi East 9.2 mph - N/A   Overcast
8:35 AM 45.1 °F 39.9 °F 43.9 °F 95% 30.00 in 10.0 mi East 10.4 mph - N/A   Overcast
8:55 AM 45.1 °F 40.8 °F 44.2 °F 97% 30.00 in 10.0 mi East 8.1 mph - N/A   Overcast
9:15 AM 45.1 °F 40.3 °F 44.2 °F 97% 29.98 in 10.0 mi ESE 9.2 mph - N/A   Overcast
9:35 AM 46.0 °F 42.5 °F 45.1 °F 97% 29.98 in 10.0 mi East 6.9 mph - N/A   Overcast
9:55 AM 47.7 °F - 46.6 °F 96% 29.99 in 10.0 mi ESE 6.9 mph - N/A   Overcast
10:35 AM 47.7 °F - 46.9 °F 97% 29.98 in 10.0 mi ESE 5.8 mph - N/A   Overcast
10:55 AM 47.7 °F - 47.3 °F 99% 29.97 in 10.0 mi ESE 4.6 mph - N/A   Overcast
11:15 AM 47.7 °F - 47.3 °F 99% 29.95 in 7.0 mi East 4.6 mph - N/A   Overcast
11:35 AM 47.7 °F - 47.5 °F 99% 29.95 in 7.0 mi East 4.6 mph - N/A Rain Light Rain
11:55 AM 47.7 °F - 47.7 °F 100% 29.94 in 7.0 mi Calm Calm - N/A   Overcast
12:15 PM 47.7 °F - 47.7 °F 100% 29.92 in 7.0 mi ESE 5.8 mph - N/A   Overcast
12:35 PM 47.7 °F - 47.7 °F 100% 29.90 in 7.0 mi ESE 4.6 mph - N/A   Overcast
12:55 PM 48.2 °F - 48.2 °F 100% 29.88 in 7.0 mi ESE 3.5 mph - N/A   Overcast
1:15 PM 50.2 °F - 50.2 °F 100% 29.87 in 7.0 mi ESE 4.6 mph - N/A   Overcast
1:35 PM 52.7 °F - 52.7 °F 100% 29.87 in 7.0 mi South 3.5 mph - N/A   Overcast
1:55 PM 52.7 °F - 52.7 °F 100% 29.85 in 10.0 mi South 3.5 mph - N/A   Overcast
2:15 PM 52.7 °F - 52.7 °F 100% 29.84 in 10.0 mi Calm Calm - N/A   Overcast
2:35 PM 52.7 °F - 52.3 °F 99% 29.84 in 10.0 mi Calm Calm - N/A   Overcast
2:55 PM 52.7 °F - 52.3 °F 99% 29.83 in 10.0 mi Calm Calm - N/A   Overcast
3:15 PM 52.7 °F - 52.2 °F 98% 29.82 in 10.0 mi Calm Calm - N/A   Overcast
3:35 PM 52.7 °F - 52.3 °F 99% 29.82 in 10.0 mi Calm Calm - N/A   Overcast
3:55 PM 53.6 °F - 53.2 °F 99% 29.82 in 10.0 mi Calm Calm - N/A   Overcast
4:15 PM 53.8 °F - 53.6 °F 99% 29.82 in 10.0 mi Calm Calm - N/A   Overcast
4:35 PM 52.7 °F - 52.7 °F 100% 29.81 in 4.0 mi Calm Calm - N/A Rain Light Rain
4:55 PM 52.7 °F - 52.7 °F 100% 29.81 in 4.0 mi Calm Calm - N/A Rain Light Rain
5:15 PM 52.7 °F - 52.7 °F 100% 29.81 in 5.0 mi Calm Calm - N/A   Overcast
5:35 PM 55.4 °F - 55.4 °F 100% 29.80 in 5.0 mi SW 3.5 mph - N/A   Drizzle
5:55 PM 56.8 °F - 56.8 °F 100% 29.80 in 7.0 mi SSW 3.5 mph - N/A Rain Light Rain
6:15 PM 57.7 °F - 57.7 °F 100% 29.79 in 7.0 mi South 4.6 mph - N/A Rain Light Rain
6:35 PM 57.7 °F - 57.7 °F 100% 29.78 in 10.0 mi SSW 6.9 mph - N/A   Overcast
6:55 PM 57.7 °F - 57.7 °F 100% 29.78 in 10.0 mi SSW 5.8 mph - N/A   Overcast
7:15 PM 57.7 °F - 57.7 °F 100% 29.78 in 5.0 mi South 5.8 mph - N/A Rain Rain
7:35 PM 57.9 °F - 57.9 °F 100% 29.77 in 10.0 mi South 6.9 mph - N/A   Overcast
7:55 PM 58.8 °F - 58.8 °F 100% 29.76 in 10.0 mi South 6.9 mph - N/A   Overcast
8:15 PM 58.8 °F - 58.8 °F 100% 29.75 in 10.0 mi South 5.8 mph - N/A   Overcast
8:35 PM 59.0 °F - 59.0 °F 100% 29.74 in 10.0 mi South 9.2 mph - N/A   Overcast
8:55 PM 58.6 °F - 58.6 °F 100% 29.73 in 10.0 mi South 9.2 mph - N/A Rain Rain
9:15 PM 57.7 °F - 57.7 °F 100% 29.71 in 10.0 mi SSW 6.9 mph - N/A Rain Light Rain
9:35 PM 57.7 °F - 57.7 °F 100% 29.73 in 10.0 mi SW 8.1 mph - N/A Rain Rain
9:55 PM 57.7 °F - 57.7 °F 100% 29.73 in 10.0 mi SSW 11.5 mph - N/A Rain Rain
10:15 PM 55.6 °F - 55.6 °F 100% 29.72 in 10.0 mi SSW 10.4 mph - N/A Rain Rain
10:35 PM 55.4 °F - 55.4 °F 100% 29.72 in 10.0 mi SSW 8.1 mph - N/A Rain Light Rain
10:55 PM 55.4 °F - 55.4 °F 100% 29.72 in 10.0 mi SSW 9.2 mph - N/A Rain Light Rain
11:15 PM 55.4 °F - 55.4 °F 100% 29.72 in 7.0 mi SSW 10.4 mph - N/A Rain Rain
11:35 PM 55.4 °F - 55.4 °F 100% 29.71 in 7.0 mi South 8.1 mph - N/A Rain Rain
11:55 PM 55.4 °F - 55.4 °F 100% 29.71 in 7.0 mi South 10.4 mph - N/A Rain Light Rain